[[[{"header":{"parameterUnit":"kt","parameterCategory":2,"dx":1,"dy":1,"la1":30.253999710083008,"la2":30.299108505249023,"lo1":-89.0895004272461,"lo2":-89.04439544677734,"nx":28,"ny":28,"refTime":"2022-09-21T09:00:00:Z","depth":0,"parameterNumber":1,"parameterNumberName":"U-component_of_WINDS"},"data":[4.6552,4.671,4.6724,4.6911,4.6956,4.7085,4.7136,4.7204,4.7261,4.7418,4.751,4.7541,4.7603,4.7717,4.7818,4.7829,4.7869,4.7915,4.792,4.7704,4.7675,4.7647,4.7609,4.7925,4.7925,4.814,4.8142,4.8143,4.639,4.6436,4.654,4.6649,4.6738,4.6702,4.6786,4.6862,4.698,4.7052,4.7144,4.7284,4.7396,4.7444,4.7553,4.7627,4.7616,4.7656,4.7648,4.7658,4.7429,4.7388,4.7663,4.7663,4.7663,4.7663,4.7663,4.7663,4.61,4.6195,4.6269,4.6381,4.644,4.6514,4.6607,4.6642,4.6743,4.6859,4.6857,4.699,4.7065,4.7204,4.7255,4.7359,4.7317,4.7364,4.7376,4.7386,4.7396,4.7079,4.7379,4.7378,4.7377,4.7377,4.7376,0,4.589,4.5895,4.5995,4.61,4.6183,4.6266,4.6344,4.6402,4.6417,4.6501,4.6622,4.6695,4.6838,4.6954,4.706,4.7103,4.7072,4.7073,4.7105,4.7105,4.7092,4.7097,4.6719,4.7063,4.706,4.7058,4.7057,4.7056,4.5595,4.5705,4.5789,4.5858,4.5904,4.6015,4.6084,4.6089,4.6162,4.6259,4.6343,4.646,4.6552,4.6746,4.6785,4.6893,4.6878,4.7007,4.6894,4.6891,4.6876,4.6868,4.6878,4.7028,4.7031,4.7034,4.7037,0,4.5426,4.5448,4.5623,4.5696,4.5717,4.5833,4.5894,4.599,4.6013,4.6148,4.618,4.6216,4.6336,4.6355,4.6496,4.6502,4.669,4.6676,4.6663,4.666,4.6775,4.6763,4.7152,4.7202,4.6878,4.6881,4.6884,0,4.5181,4.5326,4.5349,4.545,4.5611,4.5611,4.577,4.5806,4.587,4.5976,4.5945,4.6045,4.6053,4.6157,4.6166,4.6323,4.6351,4.6363,4.6363,4.6365,4.6362,4.6401,4.6384,4.6363,4.6361,4.636,4.6358,0,4.4912,4.5096,4.526,4.5305,4.5396,4.5474,4.5516,4.5587,4.5655,4.5746,4.579,4.5897,4.5955,4.6038,4.6048,4.597,4.6242,4.6137,4.6255,4.6255,4.6312,4.6307,4.665,4.6355,4.6355,4.6354,4.6353,0,4.4716,4.4808,4.5043,4.5118,4.5166,4.5275,4.5378,4.5476,4.5554,4.5566,4.5638,4.5618,4.576,4.5654,4.5848,4.5743,4.5802,4.5828,4.5836,4.5847,4.5727,4.5914,4.6241,4.6274,4.5861,4.5857,4.5853,0,4.4401,4.4644,4.4645,4.487,4.4984,4.4939,4.506,4.513,4.5156,4.5257,4.5286,4.5401,4.5326,4.5364,4.5459,4.5492,4.5629,4.5475,4.5618,4.5624,4.5595,4.5897,4.5939,4.6168,4.5801,4.5806,4.581,0,4.4159,4.4268,4.4308,4.4358,4.4451,4.4547,4.4687,4.4801,4.4867,4.4951,4.5066,4.5231,4.518,4.5244,4.524,4.5337,4.5537,4.5269,4.5271,4.5314,4.5777,4.5816,4.5855,4.5512,4.5519,4.5524,4.5769,0,4.3852,4.3976,4.4086,4.42,4.4277,4.4419,4.4437,4.4515,4.4502,4.4525,4.4698,4.4761,4.4878,4.4927,4.4916,4.5134,4.5099,4.5044,4.494,4.5139,4.522,4.5253,4.4817,4.4814,4.4812,4.481,0,0,4.3543,4.3722,4.3718,4.3853,4.3918,4.3868,4.4018,4.4076,4.4193,4.4239,4.4181,4.4421,4.4476,4.4683,4.4746,4.4795,4.4835,4.4765,4.5045,4.5071,4.5095,4.5181,4.5216,4.4805,4.4804,4.4804,4.4803,0,4.3433,4.3489,4.3638,4.3697,4.3783,4.3801,4.3837,4.3914,4.3936,4.4106,4.4062,4.4168,4.4361,4.4423,4.4479,4.4741,4.4701,4.4776,4.4909,4.5019,4.5048,4.5074,4.5165,4.5198,4.4797,4.4797,4.4797,0,4.3195,4.3252,4.3326,4.3471,4.3527,4.3647,4.3542,4.3674,4.3762,4.3702,4.387,4.3908,4.3993,4.4188,4.4276,4.4226,4.4578,4.4472,4.4488,4.4497,4.4604,4.464,4.4671,4.4256,4.4254,4.4252,0,0,4.3098,4.3214,4.3276,4.3448,4.3487,4.3515,4.3581,4.3574,4.365,4.3681,4.3728,4.3805,4.3916,4.399,4.4096,4.4309,4.4325,4.4404,4.443,4.445,4.4471,4.4584,4.4619,4.4245,4.4244,4.4244,0,0,4.3051,4.3129,4.3101,4.3304,4.3378,4.345,4.3555,4.3523,4.362,4.3605,4.36,4.3621,4.3803,4.3842,4.3741,4.4059,4.3956,4.3981,4.4026,4.4059,4.4084,4.407,4.3641,0,0,0,0,0,4.2947,4.3119,4.3093,4.313,4.3313,4.3464,4.3488,4.3487,4.3413,4.3496,4.353,4.3484,4.3786,4.3696,4.3732,4.3845,4.4149,4.4166,4.4182,4.4291,4.4325,4.4353,0,0,0,0,0,0,4.2961,4.3006,4.3089,4.3168,4.3209,4.3458,4.3332,4.3337,4.3404,4.3392,4.3479,4.3487,4.3489,4.3677,4.371,4.3817,4.363,4.4155,4.417,4.4183,4.4302,4.433,4.4354,0,0,0,0,0,4.2973,4.3008,4.3303,4.3165,4.3201,4.3241,4.3326,4.3329,4.338,4.3433,4.344,4.3374,4.3492,4.352,4.3697,4.3802,4.3607,4.3619,4.4165,4.4176,4.4186,4.4316,0,0,0,0,0,0,4.2981,4.3012,4.331,4.3321,4.31,4.3227,4.3247,4.3322,4.3417,4.3425,4.3327,4.3317,4.3497,4.3517,4.3539,4.3797,4.3588,4.3601,4.3609,4.4173,4.4182,4.419,0,0,0,0,0,0,4.2993,4.3022,4.3315,4.3233,4.3234,4.3214,4.3232,4.3382,4.3419,4.3305,4.33,4.3322,4.3464,4.3516,4.3533,4.3768,4.3574,4.3586,4.3594,4.36,4.4181,4.4188,0,0,0,0,0,0,4.3005,4.303,4.323,4.3231,4.3232,4.3354,4.3347,4.3535,4.3347,4.3302,4.3331,4.3323,4.3465,4.3481,4.3529,4.3757,4.3765,4.3575,4.3583,4.3588,4.3592,0,0,0,0,0,0,0,4.3015,4.2849,4.3245,4.323,4.323,4.3421,4.3424,4.3427,4.3346,4.3339,4.3332,4.3326,4.3506,4.3519,4.3532,4.3749,0,0,4.3573,4.3579,0,0,0,0,0,0,0,0,4.2838,4.2846,4.3246,4.3248,4.325,4.3422,4.3424,4.3427,4.3345,4.3339,4.3334,4.3329,4.3509,4.352,4.3531,0,0,0,0,0,0,0,0,0,0,0,0,0,0,0,4.3246,4.3248,0,4.3422,4.3424,4.3426,4.3344,4.3339,4.3335,4.3331,4.3512,4.3521,4.353,0,0,0,0,0,0,0,0,0,0,0,0,0,0,0,0,0,0,0,0,0,0,0,0,0,0,0,0,0,0,0,0,0,0,0,0,0,0,0,0,0,0,0,0,0,0,0,0,0,0,0,0,0,0,0,0,0,0,0,0,0,0,0,0,0,0,0,0,0]}],[{"header":{"parameterUnit":"kt","parameterCategory":2,"dx":1,"dy":1,"la1":30.253999710083008,"la2":30.299108505249023,"lo1":-89.0895004272461,"lo2":-89.04439544677734,"nx":28,"ny":28,"refTime":"2022-09-21T09:00:00:Z","depth":0,"parameterNumber":2,"parameterNumberName":"V-component_of_WINDS"},"data":[0.5835,0.5822,0.578,0.5744,0.57,0.5667,0.5642,0.5604,0.5562,0.5517,0.5483,0.5438,0.5378,0.5326,0.5286,0.5266,0.5251,0.5277,0.5249,0.5175,0.5161,0.5149,0.5149,0.5275,0.5275,0.5331,0.5332,0.5332,0.578,0.5736,0.5706,0.5647,0.562,0.5569,0.5517,0.5497,0.547,0.5419,0.5384,0.5341,0.5301,0.5231,0.5184,0.5175,0.5147,0.5165,0.5164,0.5155,0.5075,0.5075,0.5188,0.5188,0.5188,0.5188,0.5188,0.5188,0.5668,0.5662,0.5602,0.5568,0.5527,0.5488,0.5474,0.5419,0.5388,0.5336,0.5291,0.5259,0.5199,0.5122,0.5086,0.5057,0.503,0.5035,0.5036,0.5038,0.5046,0.4966,0.5048,0.5047,0.5047,0.5046,0.5046,0,0.5572,0.5536,0.5505,0.5461,0.5434,0.5395,0.5352,0.5342,0.5252,0.5231,0.5195,0.5167,0.5111,0.5071,0.5018,0.4979,0.4922,0.4913,0.4916,0.4936,0.496,0.4945,0.4813,0.4911,0.4909,0.4908,0.4908,0.4907,0.5453,0.5453,0.537,0.5354,0.532,0.5295,0.527,0.5191,0.5169,0.5104,0.5102,0.5062,0.5026,0.4976,0.4911,0.4869,0.4841,0.4882,0.4834,0.4853,0.4838,0.4838,0.4836,0.4893,0.4895,0.4896,0.4897,0,0.539,0.5321,0.5307,0.5224,0.5204,0.5207,0.5135,0.5127,0.5074,0.5055,0.5045,0.4963,0.4929,0.4857,0.4805,0.4768,0.4767,0.4742,0.4786,0.4776,0.4804,0.4802,0.4913,0.4922,0.4793,0.4794,0.4795,0,0.5261,0.5264,0.516,0.5156,0.5155,0.5076,0.5078,0.5033,0.4982,0.4966,0.4891,0.4877,0.4788,0.4763,0.4708,0.4696,0.4687,0.4657,0.4642,0.4663,0.4666,0.4649,0.4642,0.4612,0.4612,0.4611,0.4611,0,0.5168,0.5117,0.511,0.5087,0.5,0.4998,0.4962,0.4904,0.4882,0.4841,0.4825,0.4784,0.4761,0.4729,0.466,0.4629,0.4643,0.4588,0.4613,0.4614,0.4619,0.462,0.4736,0.461,0.461,0.461,0.461,0,0.5053,0.5014,0.5016,0.494,0.493,0.4926,0.4879,0.4859,0.4804,0.477,0.4737,0.4679,0.4665,0.4614,0.4591,0.4571,0.4552,0.4522,0.4523,0.4516,0.4461,0.4534,0.4654,0.4663,0.451,0.4509,0.4509,0,0.4964,0.4947,0.4879,0.4882,0.4864,0.478,0.4773,0.4728,0.4682,0.4659,0.4607,0.4582,0.453,0.4512,0.451,0.4456,0.4482,0.445,0.4415,0.4415,0.443,0.454,0.4575,0.4636,0.4497,0.4498,0.4499,0,0.4886,0.4782,0.4788,0.4757,0.4686,0.4671,0.4664,0.4622,0.461,0.4569,0.4559,0.4524,0.4481,0.4454,0.4403,0.4405,0.4462,0.436,0.4357,0.4379,0.4487,0.4519,0.453,0.4426,0.4428,0.4429,0.449,0,0.4723,0.4707,0.4719,0.4659,0.4636,0.4636,0.456,0.4546,0.4498,0.445,0.4437,0.4383,0.4341,0.4335,0.429,0.4319,0.4303,0.4259,0.4204,0.4278,0.4295,0.4303,0.4182,0.418,0.4178,0.4177,0,0,0.4654,0.4629,0.4556,0.4547,0.4524,0.4438,0.4443,0.4411,0.4348,0.4332,0.4301,0.4244,0.4202,0.4194,0.4211,0.4196,0.4193,0.4171,0.4243,0.4251,0.4258,0.4279,0.4288,0.4174,0.4173,0.4173,0.4172,0,0.4579,0.4538,0.4546,0.4508,0.445,0.4399,0.4401,0.4329,0.4298,0.4287,0.4216,0.42,0.4159,0.4121,0.4098,0.417,0.4118,0.4164,0.4227,0.4229,0.4239,0.4247,0.427,0.428,0.4168,0.4168,0.4168,0,0.4487,0.4434,0.443,0.4375,0.4336,0.4322,0.4244,0.4233,0.422,0.4128,0.4118,0.4078,0.4024,0.4028,0.4027,0.3998,0.4053,0.4024,0.4033,0.4031,0.4029,0.4042,0.4053,0.3909,0.3908,0.3908,0,0,0.4432,0.4417,0.4337,0.4353,0.4334,0.4258,0.4244,0.4195,0.4148,0.413,0.4078,0.4035,0.4009,0.3994,0.3967,0.3983,0.3964,0.3995,0.4008,0.4018,0.4022,0.4023,0.4035,0.3906,0.3906,0.3905,0,0,0.4406,0.4313,0.4273,0.4283,0.4241,0.4163,0.4175,0.4125,0.4093,0.4085,0.4003,0.3988,0.399,0.3954,0.3933,0.3945,0.3892,0.3896,0.3969,0.3983,0.3995,0.4003,0.3847,0,0,0,0,0,0.429,0.4324,0.4289,0.428,0.421,0.4182,0.4172,0.4105,0.4068,0.4079,0.4027,0.3973,0.3925,0.3903,0.3895,0.392,0.3876,0.3881,0.3886,0.3983,0.3999,0.4012,0,0,0,0,0,0,0.4286,0.4275,0.4288,0.4212,0.4196,0.418,0.4102,0.4084,0.4065,0.4055,0.3984,0.397,0.3913,0.3903,0.3897,0.3922,0.3848,0.3878,0.3883,0.3887,0.3989,0.4002,0.4013,0,0,0,0,0,0.4282,0.4273,0.418,0.4211,0.4197,0.4115,0.41,0.4085,0.4069,0.3989,0.3974,0.402,0.3915,0.3905,0.3899,0.3927,0.3852,0.385,0.3881,0.3885,0.3888,0.3995,0,0,0,0,0,0,0.428,0.4259,0.4175,0.4169,0.4194,0.4115,0.41,0.4086,0.4003,0.3988,0.402,0.4013,0.3918,0.3909,0.3902,0.3932,0.3856,0.3853,0.3852,0.3884,0.3887,0.3889,0,0,0,0,0,0,0.4263,0.4254,0.4172,0.4154,0.4144,0.4115,0.4102,0.4087,0.4003,0.4039,0.403,0.4018,0.3928,0.3912,0.3906,0.3887,0.3858,0.3856,0.3855,0.3854,0.3886,0.3888,0,0,0,0,0,0,0.4258,0.425,0.4155,0.4148,0.4139,0.4057,0.4101,0.4033,0.3988,0.4044,0.3982,0.3979,0.3933,0.3926,0.391,0.3893,0.3888,0.3858,0.3857,0.3856,0.3855,0,0,0,0,0,0,0,0.4254,0.4325,0.4216,0.4143,0.4135,0.4105,0.4103,0.4101,0.3987,0.3985,0.3983,0.398,0.387,0.3867,0.3865,0.3899,0,0,0.3858,0.3857,0,0,0,0,0,0,0,0,0.4327,0.4326,0.4216,0.4215,0.4213,0.4105,0.4103,0.4102,0.3987,0.3985,0.3983,0.3981,0.3869,0.3867,0.3865,0,0,0,0,0,0,0,0,0,0,0,0,0,0,0,0.4216,0.4215,0,0.4104,0.4103,0.4102,0.3987,0.3985,0.3984,0.3982,0.3869,0.3867,0.3866,0,0,0,0,0,0,0,0,0,0,0,0,0,0,0,0,0,0,0,0,0,0,0,0,0,0,0,0,0,0,0,0,0,0,0,0,0,0,0,0,0,0,0,0,0,0,0,0,0,0,0,0,0,0,0,0,0,0,0,0,0,0,0,0,0,0,0,0,0]}]]]